Home   Weather   Washim   Past weeks

Flag for India Past Weather in Washim, Maharashtra, India — Yesterday and Last 2 Weeks

82 °F


Feels Like: 84 °F
Forecast: 68 / 87 °F
Wind: No wind

Location: Nagpur Sonegaon

Current Time: Oct 23, 2016 at 7:50:36 PM

Latest Report: Oct 23, 2016 at 7:00 PM

Visibility: 2 mi

Pressure: 29.86 "Hg (28.07 "Hg at 546m altitude)

Humidity: 55%

Dew Point: 64 °F

Location of WashimLocation

Past Weather in Washim — Graph


Washim Temperature Yesterday

Maximum temperature yesterday: 91 °F (at 1:00 PM)
Minimum temperature yesterday: 66 °F (at 5:08 AM)
Average temperature yesterday: 78 °F

High & Low Weather Summary for the Past Weeks

High95 °F (Oct 10, 1:30 PM)100% (Oct 8, 8:00 PM)29.98 "Hg (Oct 8, 8:00 PM)
Low61 °F (Oct 13, 4:30 AM)24% (Oct 22, 2:30 PM)29.62 "Hg (Oct 23, 6:00 AM)
Average78 °F70%29.85 "Hg
* Reported Oct 8 6:30 PM — Oct 23 6:30 PM, Washim, Weather by CustomWeather, © 2016

Note: Actual official high and low records may vary slightly from our data, if they occured in-between our weather recording intervals... More about our weather records


Washim Weather History for the Previous 24 Hours

Scroll right to see more
Time TempWeatherWind HumidityBarometerVisibility
6:30 PM
Sun, Oct 23
84 °FHaze.No wind51%29.86 "Hg2 mi
5:30 PM88 °FHaze.No wind43%29.83 "Hg2 mi
5:00 PM91 °FHaze.No wind36%29.83 "Hg3 mi
4:30 PM91 °FHaze.No wind36%29.83 "Hg3 mi
4:00 PM91 °FHaze.No wind36%29.83 "Hg3 mi
3:30 PM91 °FHaze.3 mph36%29.83 "Hg3 mi
1:30 PM93 °FHaze.No wind39%29.86 "Hg3 mi
1:00 PM93 °FHaze.No wind39%29.89 "Hg3 mi
12:30 PM95 °FHaze.2 mph36%29.89 "Hg3 mi
12:00 PM91 °FHaze.2 mph32%29.92 "Hg3 mi
11:30 AM88 °FHaze.2 mph38%29.92 "Hg3 mi
11:00 AM84 °FHaze.2 mph43%29.95 "Hg3 mi
10:30 AM82 °FHaze.2 mph48%29.95 "Hg2 mi
10:00 AM82 °FHaze.2 mph48%29.95 "Hg2 mi
9:30 AM81 °FHaze.2 mph54%29.95 "Hg2 mi
9:00 AM81 °FHaze.2 mph51%29.95 "Hg2 mi
8:30 AM79 °FHaze.2 mph58%29.95 "Hg2 mi
8:00 AM75 °FHaze.No wind57%29.95 "Hg2 mi
7:30 AM73 °FHaze.No wind65%29.95 "Hg1 mi
7:00 AM70 °FHaze.No wind73%29.95 "Hg1 mi
6:30 AM70 °FFog.No wind73%29.62 "Hg1 mi
6:00 AM68 °FFog.No wind78%29.62 "Hg1 mi
5:30 AM68 °FFog.No wind78%29.89 "Hg1 mi
5:00 AM70 °FHaze.No wind73%29.89 "Hg1 mi
4:30 AM70 °FHaze.No wind73%29.86 "Hg1 mi
4:00 AM70 °FHaze.No wind73%29.86 "Hg1 mi
2:30 AM68 °FHaze.No wind78%29.86 "Hg1 mi
2:00 AM72 °FHaze.No wind73%29.89 "Hg1 mi
1:30 AM72 °FHaze.No wind69%29.89 "Hg1 mi
1:00 AM73 °FHaze.No wind69%29.89 "Hg1 mi
12:30 AM72 °FHaze.No wind69%29.89 "Hg1 mi
12:00 AM73 °FHaze.No wind61%29.89 "Hg1 mi
11:30 PM
Sat, Oct 22
73 °FHaze.No wind65%29.89 "Hg1 mi
11:00 PM73 °FHaze.No wind65%29.92 "Hg1 mi
10:30 PM75 °FHaze.No wind61%29.92 "Hg2 mi
10:00 PM75 °FHaze.No wind61%29.92 "Hg2 mi
9:30 PM75 °FHaze.No wind61%29.92 "Hg2 mi
9:00 PM75 °FHaze.No wind61%29.92 "Hg2 mi
8:30 PM73 °FHaze.No wind65%29.92 "Hg2 mi
8:00 PM77 °FHaze.No wind54%29.89 "Hg2 mi
7:30 PM77 °FHaze.No wind54%29.89 "Hg2 mi
Weather by CustomWeather, © 2016

See weather overviewHow to use our weather pages